Norse Mersey — IBEN — position and weather

sailwx.info

Track history (hours):
 
Tides and Currents Weather Stations Pressure Air Temp Water Temp Dewpoint Dewpoint Depression Visibility Wind Speed Wind Dir Waves Ship Positions

Norse Mersey

Operator: Norse Merchant Ferries

Last reported at 2019-Sep-20 23:49 UTC. Time now 2019-Sep-21 00:41 UTC.
Position N 40°36' E 014°42'.

Length 175 m; draft 5.4 m.

Type: Ship (hazmat cat A). MMSI: 247026000.

Date/timePositionNaut miles runAvg speedWind from/ knotsBaromVisibWave heightAir tempDewpointWater temp
2019-Sep-20 23:49N 40°36' E 014°42'1 1.9
2019-Sep-20 23:29N 40°36' E 014°42'1 1.3
2019-Sep-20 23:00N 40°36' E 014°41'5 9.3
2019-Sep-20 22:30N 40°35' E 014°35'712.9
2019-Sep-20 22:00N 40°33' E 014°27'612.4
2019-Sep-20 21:30N 40°31' E 014°20'712.4
2019-Sep-20 20:59N 40°27' E 014°13'712.4
2019-Sep-20 20:26N 40°24' E 014°05'23313.3
2019-Sep-20 02:51N 39°04' E 009°20'514.6
2019-Sep-20 02:30N 39°07' E 009°14'713.4
2019-Sep-20 02:00N 39°10' E 009°07'3 0.4
2019-Sep-19 19:51N 39°13' E 009°06'1 3.1
2019-Sep-19 19:30N 39°12' E 009°06'714.2
2019-Sep-19 19:00N 39°07' E 009°13'23814.9
2019-Sep-19 03:01N 40°25' E 014°06'015.8
2019-Sep-19 03:00N 40°25' E 014°07'815.4
2019-Sep-19 02:30N 40°29' E 014°16'815.6
2019-Sep-19 02:00N 40°32' E 014°25'815.4
2019-Sep-19 01:29N 40°35' E 014°35'5 0.6
2019-Sep-18 16:57N 40°37' E 014°41'715.4
2019-Sep-18 16:30N 40°34' E 014°33'715.3
2019-Sep-18 16:00N 40°30' E 014°24'815.1
2019-Sep-18 15:30N 40°26' E 014°15'24214.9
2019-Sep-17 23:14N 39°04' E 009°20'415.8
2019-Sep-17 23:00N 39°06' E 009°16'714.7
2019-Sep-17 22:30N 39°10' E 009°08'3 0.5
2019-Sep-17 15:55N 39°13' E 009°06'2 4.4
2019-Sep-17 15:30N 39°11' E 009°07'815.1
2019-Sep-17 15:00N 39°07' E 009°15'23715.0
2019-Sep-16 23:12N 40°26' E 014°05'615.2
2019-Sep-16 22:48N 40°28' E 014°13'415.1
2019-Sep-16 22:30N 40°29' E 014°18'815.2
2019-Sep-16 22:00N 40°32' E 014°28'815.1
2019-Sep-16 21:27N 40°36' E 014°38'1 0.0
2019-Sep-15 14:47N 40°36' E 014°39'415.9
2019-Sep-15 14:30N 40°34' E 014°34'815.6
2019-Sep-15 14:00N 40°30' E 014°25'815.5
2019-Sep-15 13:30N 40°27' E 014°15'915.1
2019-Sep-15 12:53N 40°22' E 014°05'615.4
2019-Sep-15 12:30N 40°20' E 013°58'22715.0
2019-Sep-14 21:23N 39°04' E 009°20'615.4
2019-Sep-14 21:00N 39°07' E 009°14'713.4
2019-Sep-14 20:30N 39°11' E 009°07'2 0.2
2019-Sep-14 12:22N 39°13' E 009°06'1 2.8
2019-Sep-14 12:01N 39°12' E 009°06'713.5
2019-Sep-14 11:31N 39°08' E 009°13'20915.1
2019-Sep-13 21:42N 40°14' E 013°30'315.4
2019-Sep-13 21:30N 40°15' E 013°34'815.4
2019-Sep-13 21:01N 40°18' E 013°43'815.4
2019-Sep-13 20:30N 40°21' E 013°53'815.5
2019-Sep-13 20:00N 40°23' E 014°02'815.5
2019-Sep-13 19:31N 40°27' E 014°11'815.5
2019-Sep-13 18:59N 40°30' E 014°21'715.5
2019-Sep-13 18:30N 40°33' E 014°30'815.5
2019-Sep-13 18:00N 40°36' E 014°40'1 0.1
2019-Sep-13 09:30N 40°37' E 014°39'815.0
2019-Sep-13 09:00N 40°34' E 014°30'714.9
2019-Sep-13 08:30N 40°32' E 014°21'1014.4
2019-Sep-13 07:49N 40°32' E 014°07'515.3
2019-Sep-13 07:30N 40°34' E 014°02'815.0
2019-Sep-13 07:00N 40°38' E 013°54'714.9
2019-Sep-13 06:30N 40°42' E 013°46'815.1
2019-Sep-13 05:59N 40°47' E 013°38'715.0
2019-Sep-13 05:30N 40°52' E 013°30'714.9
2019-Sep-13 05:00N 40°56' E 013°23'814.9
2019-Sep-13 04:30N 41°01' E 013°15'16314.9
2019-Sep-12 17:31N 42°50' E 010°32'015.7
2019-Sep-12 17:30N 42°50' E 010°32'815.8
2019-Sep-12 17:00N 42°58' E 010°27'815.5
2019-Sep-12 16:30N 43°05' E 010°23'815.4
2019-Sep-12 16:00N 43°12' E 010°19'815.7
2019-Sep-12 15:30N 43°19' E 010°16'815.7
2019-Sep-12 15:00N 43°27' E 010°12'611.0
2019-Sep-12 14:30N 43°32' E 010°15'3 6.6
2019-Sep-12 14:01N 43°34' E 010°18'1 1.5
2019-Sep-12 13:28N 43°35' E 010°19'0 0.0
2019-Sep-12 12:58N 43°35' E 010°19'0 0.0
2019-Sep-12 12:28N 43°35' E 010°19'0 0.0
2019-Sep-12 11:58N 43°35' E 010°19'0 0.0
2019-Sep-12 11:28N 43°35' E 010°19'0 0.0
2019-Sep-12 10:58N 43°35' E 010°19'0 0.0
2019-Sep-12 10:28N 43°35' E 010°19'0 0.0
2019-Sep-12 09:58N 43°35' E 010°19'0 0.0
2019-Sep-12 09:28N 43°35' E 010°19'0 0.0
2019-Sep-12 08:58N 43°35' E 010°19'0 0.0
2019-Sep-12 08:28N 43°35' E 010°19'0 0.0
2019-Sep-12 07:59N 43°35' E 010°19'2 3.8
2019-Sep-12 07:30N 43°33' E 010°18'4 8.1
2019-Sep-12 07:00N 43°30' E 010°14'815.2
2019-Sep-12 06:30N 43°23' E 010°12'815.3
2019-Sep-12 06:00N 43°15' E 010°08'715.1
2019-Sep-12 05:30N 43°08' E 010°06'714.9
2019-Sep-12 05:00N 43°01' E 010°03'714.8
2019-Sep-12 04:30N 42°54' E 010°01'815.1
2019-Sep-12 04:00N 42°46' E 009°59'815.2
2019-Sep-12 03:30N 42°39' E 009°56'1214.8
2019-Sep-12 02:43N 42°27' E 009°54'6414.1
2019-Sep-11 22:09N 41°23' E 009°46'214.5
2019-Sep-11 22:00N 41°21' E 009°45'815.2
2019-Sep-11 21:30N 41°13' E 009°44'35 1.8
2019-Sep-11 02:12N 41°49' E 009°48'416.1
2019-Sep-11 01:58N 41°52' E 009°48'  
Track history (hours):
 
Tides and Currents Weather Stations Pressure Air Temp Water Temp Dewpoint Dewpoint Depression Visibility Wind Speed Wind Dir Waves Ship Positions

Norse Mersey

Operator: Norse Merchant Ferries

Last reported at 2019-Sep-20 23:49 UTC. Time now 2019-Sep-21 00:41 UTC.
Position N 40°36' E 014°42'.

Length 175 m; draft 5.4 m.

Type: Ship (hazmat cat A). MMSI: 247026000.

Date/timePositionNaut miles runAvg speedWind from/ knotsBaromVisibWave heightAir tempDewpointWater temp
2019-Sep-20 23:49N 40°36' E 014°42'1 1.9
2019-Sep-20 23:29N 40°36' E 014°42'1 1.3
2019-Sep-20 23:00N 40°36' E 014°41'5 9.3
2019-Sep-20 22:30N 40°35' E 014°35'712.9
2019-Sep-20 22:00N 40°33' E 014°27'612.4
2019-Sep-20 21:30N 40°31' E 014°20'712.4
2019-Sep-20 20:59N 40°27' E 014°13'712.4
2019-Sep-20 20:26N 40°24' E 014°05'23313.3
2019-Sep-20 02:51N 39°04' E 009°20'514.6
2019-Sep-20 02:30N 39°07' E 009°14'713.4
2019-Sep-20 02:00N 39°10' E 009°07'3 0.4
2019-Sep-19 19:51N 39°13' E 009°06'1 3.1
2019-Sep-19 19:30N 39°12' E 009°06'714.2
2019-Sep-19 19:00N 39°07' E 009°13'23814.9
2019-Sep-19 03:01N 40°25' E 014°06'015.8
2019-Sep-19 03:00N 40°25' E 014°07'815.4
2019-Sep-19 02:30N 40°29' E 014°16'815.6
2019-Sep-19 02:00N 40°32' E 014°25'815.4
2019-Sep-19 01:29N 40°35' E 014°35'5 0.6
2019-Sep-18 16:57N 40°37' E 014°41'715.4
2019-Sep-18 16:30N 40°34' E 014°33'715.3
2019-Sep-18 16:00N 40°30' E 014°24'815.1
2019-Sep-18 15:30N 40°26' E 014°15'24214.9
2019-Sep-17 23:14N 39°04' E 009°20'415.8
2019-Sep-17 23:00N 39°06' E 009°16'714.7
2019-Sep-17 22:30N 39°10' E 009°08'3 0.5
2019-Sep-17 15:55N 39°13' E 009°06'2 4.4
2019-Sep-17 15:30N 39°11' E 009°07'815.1
2019-Sep-17 15:00N 39°07' E 009°15'23715.0
2019-Sep-16 23:12N 40°26' E 014°05'615.2
2019-Sep-16 22:48N 40°28' E 014°13'415.1
2019-Sep-16 22:30N 40°29' E 014°18'815.2
2019-Sep-16 22:00N 40°32' E 014°28'815.1
2019-Sep-16 21:27N 40°36' E 014°38'1 0.0
2019-Sep-15 14:47N 40°36' E 014°39'415.9
2019-Sep-15 14:30N 40°34' E 014°34'815.6
2019-Sep-15 14:00N 40°30' E 014°25'815.5
2019-Sep-15 13:30N 40°27' E 014°15'915.1
2019-Sep-15 12:53N 40°22' E 014°05'615.4
2019-Sep-15 12:30N 40°20' E 013°58'22715.0
2019-Sep-14 21:23N 39°04' E 009°20'615.4
2019-Sep-14 21:00N 39°07' E 009°14'713.4
2019-Sep-14 20:30N 39°11' E 009°07'2 0.2
2019-Sep-14 12:22N 39°13' E 009°06'1 2.8
2019-Sep-14 12:01N 39°12' E 009°06'713.5
2019-Sep-14 11:31N 39°08' E 009°13'20915.1
2019-Sep-13 21:42N 40°14' E 013°30'315.4
2019-Sep-13 21:30N 40°15' E 013°34'815.4
2019-Sep-13 21:01N 40°18' E 013°43'815.4
2019-Sep-13 20:30N 40°21' E 013°53'815.5
2019-Sep-13 20:00N 40°23' E 014°02'815.5
2019-Sep-13 19:31N 40°27' E 014°11'815.5
2019-Sep-13 18:59N 40°30' E 014°21'715.5
2019-Sep-13 18:30N 40°33' E 014°30'815.5
2019-Sep-13 18:00N 40°36' E 014°40'1 0.1
2019-Sep-13 09:30N 40°37' E 014°39'815.0
2019-Sep-13 09:00N 40°34' E 014°30'714.9
2019-Sep-13 08:30N 40°32' E 014°21'1014.4
2019-Sep-13 07:49N 40°32' E 014°07'515.3
2019-Sep-13 07:30N 40°34' E 014°02'815.0
2019-Sep-13 07:00N 40°38' E 013°54'714.9
2019-Sep-13 06:30N 40°42' E 013°46'815.1
2019-Sep-13 05:59N 40°47' E 013°38'715.0
2019-Sep-13 05:30N 40°52' E 013°30'714.9
2019-Sep-13 05:00N 40°56' E 013°23'814.9
2019-Sep-13 04:30N 41°01' E 013°15'16314.9
2019-Sep-12 17:31N 42°50' E 010°32'015.7
2019-Sep-12 17:30N 42°50' E 010°32'815.8
2019-Sep-12 17:00N 42°58' E 010°27'815.5
2019-Sep-12 16:30N 43°05' E 010°23'815.4
2019-Sep-12 16:00N 43°12' E 010°19'815.7
2019-Sep-12 15:30N 43°19' E 010°16'815.7
2019-Sep-12 15:00N 43°27' E 010°12'611.0
2019-Sep-12 14:30N 43°32' E 010°15'3 6.6
2019-Sep-12 14:01N 43°34' E 010°18'1 1.5
2019-Sep-12 13:28N 43°35' E 010°19'0 0.0
2019-Sep-12 12:58N 43°35' E 010°19'0 0.0
2019-Sep-12 12:28N 43°35' E 010°19'0 0.0
2019-Sep-12 11:58N 43°35' E 010°19'0 0.0
2019-Sep-12 11:28N 43°35' E 010°19'0 0.0
2019-Sep-12 10:58N 43°35' E 010°19'0 0.0
2019-Sep-12 10:28N 43°35' E 010°19'0 0.0
2019-Sep-12 09:58N 43°35' E 010°19'0 0.0
2019-Sep-12 09:28N 43°35' E 010°19'0 0.0
2019-Sep-12 08:58N 43°35' E 010°19'0 0.0
2019-Sep-12 08:28N 43°35' E 010°19'0 0.0
2019-Sep-12 07:59N 43°35' E 010°19'2 3.8
2019-Sep-12 07:30N 43°33' E 010°18'4 8.1
2019-Sep-12 07:00N 43°30' E 010°14'815.2
2019-Sep-12 06:30N 43°23' E 010°12'815.3
2019-Sep-12 06:00N 43°15' E 010°08'715.1
2019-Sep-12 05:30N 43°08' E 010°06'714.9
2019-Sep-12 05:00N 43°01' E 010°03'714.8
2019-Sep-12 04:30N 42°54' E 010°01'815.1
2019-Sep-12 04:00N 42°46' E 009°59'815.2
2019-Sep-12 03:30N 42°39' E 009°56'1214.8
2019-Sep-12 02:43N 42°27' E 009°54'6414.1
2019-Sep-11 22:09N 41°23' E 009°46'214.5
2019-Sep-11 22:00N 41°21' E 009°45'815.2
2019-Sep-11 21:30N 41°13' E 009°44'35 1.8
2019-Sep-11 02:12N 41°49' E 009°48'416.1
2019-Sep-11 01:58N 41°52' E 009°48'  

Dump ship's entire track history